Location: Ermatingen
(47.6706°N, 9.0857°E)
Time: 14:38:11
(UTC+00:00)

N. Korean satellite - Visible Passes

Search period start: 30 January 2023 00:00
Search period end: 09 February 2023 00:00
Orbit: 407 x 444 km, 97.3° (Epoch: 29 January)

Date Brightness Start Highest point End Pass type
(mag) Time Alt. Az. Time Alt. Az. Time Alt. Az.
30 Jan 6.2 05:09:49 10° N 05:12:59 56° WNW 05:16:09 10° SSW visible
31 Jan 7.8 04:27:32 10° NNE 04:30:34 36° E 04:33:35 10° SSE visible
31 Jan 8.0 06:00:43 10° NNW 06:02:34 15° WNW 06:04:25 10° W visible
01 Feb 9.8 03:46:43 10° ENE 03:47:50 11° E 03:48:58 10° ESE visible
01 Feb 6.5 05:17:16 10° N 05:20:21 44° WNW 05:23:28 10° SW visible
02 Feb 7.3 04:34:43 10° NNE 04:37:51 45° E 04:41:00 10° S visible
02 Feb 8.2 06:08:22 10° NW 06:09:46 12° WNW 06:11:10 10° W visible
03 Feb 9.5 03:53:17 10° ENE 03:55:03 14° E 03:56:50 10° SE visible
03 Feb 6.8 05:24:29 10° N 05:27:29 36° WNW 05:30:30 10° SW visible
04 Feb 6.9 04:41:41 10° NNE 04:44:53 57° E 04:48:06 10° S visible
05 Feb 9.3 03:59:49 10° NE 04:02:00 17° E 04:04:11 10° SE visible
05 Feb 7.1 05:31:27 10° N 05:34:20 30° WNW 05:37:14 10° SW visible
06 Feb 6.5 04:48:25 10° NNE 04:51:40 71° ESE 04:54:55 10° S visible
07 Feb 9.0 04:06:13 10° NE 04:08:41 20° E 04:11:10 10° SE visible
07 Feb 7.3 05:38:11 10° NNW 05:40:56 25° WNW 05:43:42 10° SW visible
08 Feb 6.2 04:54:54 10° NNE 04:58:11 87° ESE 05:01:28 10° SSW visible
